Regional Weather Roundup
Issued by NWS

Home | Current Version | Previous Version | Graphics & Text | Print | Product List | Glossary On
Versions: 1 2 3 4 5 6 7 8 9 10 11 12 13 14 15 16 17 18 19 20 21 22 23 24 25 26 27 28 29 30 31 32 33 34 35 36 37 38 39 40 41 42 43 44 45 46 47 48 49 50
000
ASUS45 KABQ 010001
RWRNM
NEW MEXICO REGIONAL WEATHER ROUNDUP
NATIONAL WEATHER SERVICE ALBUQUERQUE NM
600 PM MDT FRI JUL 31 2015

NOTE: "FAIR" MEANS FEW OR NO CLOUDS BELOW 12,000 FEET AGL WITH NO
       SIGNIFICANT WEATHER OR OBSTRUCTIONS TO VISION.

      THIS PRODUCT IS RELEASED AS TWO VERSIONS.  ONE VERSION NEAR
      THE TOP OF THE HOUR CONTAINING PRELIMINARY DATA FROM ALBUQUERQUE
      AND OTHER STATIONS.  A FINAL VERSION WITH ADDITIONAL DATA IS
      ISSUED ABOUT 10 MINUTES AFTER THE HOUR.

NMZ501-503-504-510>518-010100-
NORTHWEST PLATEAU/NORTHCENTRAL MOUNTAINS

CITY           SKY/WX    TMP DP  RH WIND       PRES   REMARKS
FARMINGTON     SUNNY     72  60  66 E6        30.25R
6HR MIN TEMP:  66; 6HR MAX TEMP:  82; 6HR PCP:  0.20;

SANTA FE       PTSUNNY   75  55  49 N16       30.32S
6HR MIN TEMP:  71; 6HR MAX TEMP:  81;

TAOS           PTSUNNY   63  50  63 NW5       30.42F

$$
NMZ402-403-502-505>509-010100-
WESTCENTRAL MOUNTAINS/SOUTHWEST MOUNTAINS

CITY           SKY/WX    TMP DP  RH WIND       PRES   REMARKS
GALLUP         PTSUNNY   80  54  40 E17       30.27F THUNDER
6HR MIN TEMP:  73; 6HR MAX TEMP:  84; 6HR PCP: TRACE;

SILVER CITY      N/A     82  55  39 S13       30.23F

$$
NMZ407-409-411-412-010100-
SOUTHERN DESERTS

CITY           SKY/WX    TMP DP  RH WIND       PRES   REMARKS
DEMING         SUNNY     90  55  30 E9        30.13S
6HR MIN TEMP:  81; 6HR MAX TEMP:  90;

HOLLOMAN AFB   PTSUNNY   85  56  36 N24       30.10S
ALAMOGORDO     CLOUDY    88  55  33 NE14      30.12S
T OR C         SUNNY     88  54  31 S8        30.16F
6HR MIN TEMP:  78; 6HR MAX TEMP:  89;


$$
NMZ519>523-010100-
CENTRAL VALLEYS/CENTRAL HIGHLANDS

CITY           SKY/WX    TMP DP  RH WIND       PRES   REMARKS
ALBUQUERQUE    PTSUNNY   81  51  35 NW8       30.25S
6HR MIN TEMP:  77; 6HR MAX TEMP:  86;

DOUBLE EAGLE   PTSUNNY   73  61  64 NW17      30.30R
CLINES CORNERS LGT RAIN  67  58  72 SE10      30.39R
6HR MIN TEMP:  59; 6HR MAX TEMP:  76;

BELEN          FAIR      77  55  46 NW13      30.22F
6HR MIN TEMP:  75; 6HR MAX TEMP:  89;

SOCORRO        NOT AVBL

$$
NMZ524>526-539-540-010100-
SOUTHCENTRAL MOUNTAINS

CITY           SKY/WX    TMP DP  RH WIND       PRES   REMARKS
RUIDOSO          N/A    N/A N/A N/A MISG        N/A

$$
NMZ527>531-010100-
NORTHEAST HIGHLANDS/NORTHEAST PLAINS

CITY           SKY/WX    TMP DP  RH WIND       PRES   REMARKS
LAS VEGAS      CLOUDY    65  59  81 SW7       30.39S
6HR MIN TEMP:  60; 6HR MAX TEMP:  76; 6HR PCP:  0.02;

RATON          LGT RAIN  66  56  70 NW13      30.30R
6HR MIN TEMP:  65; 6HR MAX TEMP:  83; 6HR PCP: TRACE;

CLAYTON        CLOUDY    77  64  64 SE10      30.23S
6HR MIN TEMP:  76; 6HR MAX TEMP:  83;


$$
NMZ532>537-010100-
EASTCENTRAL PLAINS

CITY           SKY/WX    TMP DP  RH WIND       PRES   REMARKS
TUCUMCARI      PTSUNNY   79  65  62 NW20G25   30.20R
6HR MIN TEMP:  73; 6HR MAX TEMP:  86;

CANNON AFB     MOSUNNY   86  64  48 SE10      30.18F
6HR MIN TEMP:  77; 6HR MAX TEMP:  87;

CLOVIS AIRPORT PTSUNNY   82  63  51 SE17G28   30.20S

$$
NMZ028-029-538-010100-
SOUTHEAST PLAINS

CITY           SKY/WX    TMP DP  RH WIND       PRES   REMARKS
ROSWELL        MOSUNNY   91  59  33 NE8       30.08F
6HR MIN TEMP:  86; 6HR MAX TEMP:  97;

ARTESIA        MOSUNNY   93  54  26 S8        30.09S
CARLSBAD       MOSUNNY   97  49  19 E8        30.05F
6HR MIN TEMP:  90; 6HR MAX TEMP:  98;

HOBBS          MOSUNNY   93  48  21 SE10      30.10F


$$


USA.gov is the U.S. government's official web portal to all federal, state and local government web resources and services.